Regional Weather Roundup
Issued by NWS Charleston, SC

Current Version | Previous Version | Text Only | Print | Product List | Glossary Off
Versions: 1 2 3 4 5 6 7 8 9 10 11 12 13 14 15 16 17 18 19 20 21 22 23 24 25 26 27 28 29 30 31 32 33 34 35 36 37 38 39 40 41 42 43 44 45 46 47 48 49 50

000
ASUS42 KCHS 110211
RWRCHS

REGIONAL WEATHER ROUNDUP
NATIONAL WEATHER SERVICE CHARLESTON SC
900 PM EST SUN DEC 10 2017

NOTE: "FAIR" INDICATES FEW OR NO CLOUDS BELOW 12,000 FEET WITH NO
SIGNIFICANT WEATHER AND/OR OBSTRUCTIONS TO VISIBILITY.

NOT ALL STATIONS ARE QUALITY CONTROLLED. USE DATA WITH CAUTION...
ESPECIALLY DEWPOINT OBSERVATIONS.

SCZ027-030-031-034>040-042>050-110300-
...SOUTHEAST SOUTH CAROLINA...

CITY           SKY/WX    TMP DP  RH WIND       PRES   REMARKS
N CHARLESTON   CLEAR     34  30  85 SW6       30.24S WCI  29
WATERFRONT PRK   N/A     43  35  73 VRB3      30.10R
JOHNS ISLAND   FAIR      37  32  81 CALM      30.25S
PINOPOLIS        N/A     41  34  75 SW5       30.16S
MONCKS CORNER  FAIR      32  30  93 CALM      30.24S
SUMMERVILLE    FAIR      34  32  93 CALM      30.25S
BEAUFORT MCAS  CLEAR     36  33  89 SW5       30.26R WCI  32
BEAUFORT ARPT  FAIR      37  34  87 SW5       30.25S WCI  34
HILTON HEAD IS CLEAR     36  34  93 CALM      30.27S
WALTERBORO     CLEAR     32  32 100 CALM      30.25S
ALLENDALE      FAIR      36  32  87 CALM      30.22F

...SOUTHERN MIDLANDS AND PEE DEE...

CITY           SKY/WX    TMP DP  RH WIND       PRES   REMARKS
GEORGETOWN     FAIR      32  32 100 CALM      30.25S
KINGSTREE      FAIR      32  32 100 CALM      30.22F
ORANGEBURG     CLEAR     33  29  85 SW6       30.21F WCI  28
BARNWELL         N/A     34  30  86 CALM      30.22S
AIKEN          FAIR      34  27  75 SW6       30.23S WCI  29
MANNING        FAIR      34  32  93 MISG      30.22F
COLUMBIA       CLEAR     33  31  92 W3        30.19F
SUMTER         CLEAR     35  28  75 S5        30.18S WCI  31
FLORENCE       CLEAR     36  28  73 S6        30.20F WCI  31
MYRTLE BEACH   CLEAR     38  29  70 SW6       30.24R WCI  33
N MYRTLE BEACH CLEAR     40  28  62 W6        30.22S WCI  36

$$

GAZ063-065-086>088-099>101-113>116-118-119-134>141-150-110300-
...SOUTHEAST GEORGIA...

CITY           SKY/WX    TMP DP  RH WIND       PRES   REMARKS
SAVANNAH ARPT  CLEAR     38  32  79 SW3       30.27R
HUNTER AAF     CLEAR     36  31  81 CALM      30.25R
FORT STEWART   CLEAR     35  32  88 CALM      30.25S
STATESBORO     CLEAR     33  33 100 CALM      30.26R
SYLVANIA       CLEAR     36  34  90 CALM      30.25S
CLAXTON        FAIR      34  33  97 CALM      30.27R

...CSRA...CENTRAL AND FAR SOUTHEAST GEORGIA...

CITY           SKY/WX    TMP DP  RH WIND       PRES   REMARKS
THOMSON        CLEAR     33  27  78 NW6       30.27R WCI  27
AUGUSTA-BUSH   CLEAR     32  29  88 CALM      30.22S
AUGUSTA-DANIEL CLEAR     40  26  57 CALM      30.21F
SWAINSBORO     FAIR      37  30  75 NW5       30.26S WCI  34
VIDALIA        CLEAR     39  32  75 CALM      30.27R
EASTMAN        FAIR      35  27  74 CALM      30.30S
HAZLEHURST     FAIR      37  31  78 CALM      30.26S
ALMA           CLEAR     34  31  88 CALM      30.27S
WAYCROSS       CLEAR     34  31  89 SW5       30.29R WCI  30
JESUP          NOT AVBL
BAXLEY         FAIR      34  34 100 CALM      30.27S
BRUNSWICK      CLEAR     36  34  93 CALM      30.29S
SAINT SIMONS   CLEAR     40  34  79 CALM      30.28R

$$

SCZ027-028-034-036>038-045-046-048>050-GAZ119-141-110300-
...LAKE AND SUPPLEMENTAL COASTAL OBSERVATIONS...

STATION/POSITION TIME  TEMP    WIND        PRES    WAVE   SWELL
                       AIR SEA DIR/SP/G            HT/PER HT/PER/DIR
                 (UTC) (F)     (DEG/KT/KT) (MB)    (FT/S) (FT/S/D)
WINYAH BAY       0045   40     260/  3     1024.0
LAKE MURRAY      0120   46     240/  8/ 11 1021.3
ACE BASIN NERRS  0045   37        CALM     1024.0
FORT PULASKI     0142   44 56  230/  4/  5 1025.0R
SAPELO ISLAND    NOT AVBL

$$

ANZ835-935-AMZ111-154-330-350-352-354-370-450-454-472-110300-
...C-MAN AND BUOY OBSERVATIONS...

STATION/POSITION TIME  TEMP    WIND        PRES    WAVE   SWELL
                       AIR SEA DIR/SP/G            HT/PER HT/PER/DIR
                 (UTC) (F)     (DEG/KT/KT) (MB)    (FT/S) (FT/S/D)
BUOY 41004       0150      73  250/ 12/ 16 1023.6R   2/10   2/100/10
BUOY 41008       0150   51 61  260/ 14/ 16 1024.8F   2/ 9   2/ 60/ 9
FOLLY BEACH CMAN 0100   43     250/  5/  6 1024.5S
CAPERS NEARSHORE 0108   45     260/ 14/ 19 1023.7S
FRIPP NEARSHORE  0108   46 55  250/ 14/ 19 1023.6R


STATION/POSITION TIME  TEMP    WIND        PRES    WAVE   SWELL
                       AIR SEA DIR/SP/G            HT/PER HT/PER/DIR
                 (UTC) (F)     (DEG/KT/KT) (MB)    (FT/S) (FT/S/D)
5E ST. MARYS GA  0130      60                N/A     2/11
FRYING PAN BUOY  0150   50 61  270/ 12/ 16 1023.0F   3/ 6   2/210/ 6
BUOY 41025       0150   48 75  280/ 12/ 17 1022.3S   5/ 8   3/190/ 8
CAPE LOOKOUT NC  0100          270/  9/ 12 1022.9R
BUOY 41002       0150   58 76  320/  8/ 12 1022.7R   7/ 8   7/330/ 8
BUOY 41010       NOT AVBL
ST AUGUSTINE FL  0200   46 62  280/  6/  6 1026.2R


$$




USA.gov is the U.S. government's official web portal to all federal, state and local government web resources and services.